Location: Newark
(34.0131°N, 4.3314°W)
Time: 16:41:57
(UTC+00:00)

Explorer 7 - Pass Details

Date: 17 October 2019
Orbit: 485 x 680 km, 50.3° (Epoch: 14 November)

Event Time Altitude Azimuth Distance (km) Brightness Sun altitude
Rises 18:06:30 0° 320° (NW) 2,645 10.8 -6.0°
Reaches altitude 10° 18:08:54 10° 332° (NNW) 1,786 9.7 -6.5°
Maximum altitude 18:12:25 27° 32° (NNE) 1,075 8.0 -7.2°
Drops below altitude 10° 18:16:06 10° 92° (E) 1,883 8.9 -8.0°
Enters shadow 18:16:09 10° 92° (E) 1,903 8.9 -8.0°
Sets 18:18:42 0° 104° (ESE) 2,820 - -8.5°
